Weather in Zhashkiv

Ukraine / Cherkassi District     49°14′48″N   30°06′02″E
temp.,
°C
wind,
m/s
gust,
m/s
humid.,
%
clouds,
%
prec.,
mm/h
press.,
hPa
HPBL,
m
18 january, mon
mon1823:00−14n238999 0.0 1017279
02:00−15nnw239264 0.0 1018163
05:00−15nnw249370 0.0 1018293
08:00−14n348982 0.1 1019512
11:00−13nnw3380100 0.1 1020624
14:00−13nw3480100 0.1 1020710
17:00−14nw3585100 0.1 1021527
20:00−15nw468894 0.1 1021352
19 january, tue
tue1923:00−16nw3590100 0.0 1022323
02:00−16wnw4691100 0.0 1022295
05:00−17wnw369197 0.0 1022299
08:00−17wnw369293 0.0 1022310
11:00−15wnw348479 0.0 1023305
14:00−13w348386 0.0 1022358
17:00−14w229132 0.0 102257
20:00−14sw128815 0.0 102220
20 january, wed
wed2023:00−13ssw23877 0.0 102233
02:00−13ssw34864 0.0 102267
05:00−11s359370 0.1 102094
08:00−11sse369053 0.1 1020124
11:00−8sse588690 0.0 1021280
14:00−6s478488 0.0 1020323
17:00−7sse498990 0.0 1019237
20:00−6s499386 0.0 1020269
21 january, thu
thu2123:00−6s499591 0.0 1020231
02:00−5s489690 0.2 1019206
05:00−6s489597 0.1 1019173
08:00−5s499498 0.1 1019172
11:00−2ssw588612 0.0 1019258
14:000s48855 0.0 1018277
17:00−2s47900 0.0 1018124
20:00−2s479118 0.0 1018138
22 january, fri
fri2223:00−2ssw479151 0.0 1017131
02:00−2ssw479046 0.0 1016120
05:00−2s488972 0.0 1015139
08:00−2s5108984 0.0 1015154
11:00+1s5108294 0.0 1014273
14:00+2s5118293 0.0 1012330
17:00+1s5118592 0.0 1011251
20:000s5118871 0.0 1010236